Lid_Strength_Index
2 2 2 2 3 3 5 5 4 4 4 4 4 5 5 5 5 5 5 5 5 5 5 4 3 2 4 8 9 3 -3 -1 -0 2 4 4 5 5 6 5 5 6 6 5 4 4 5
3 3 3 2 2 2 3 3 4 4 4 4 4 4 4 4 5 5 4 4 4 4 4 3 3 3 5 10 5 5 4 4 4 3 4 4 4 3 4 5 6 5 5 6 5 5 6
3 3 3 3 3 3 2 2 3 3 4 4 4 4 4 4 4 4 4 4 4 4 4 3 3 3 6 7 5 3 2 2 3 3 4 4 3 3 4 5 4 5 7 6 6 6 6
4 4 4 4 3 3 4 3 2 3 3 3 3 3 4 4 4 4 4 4 4 4 4 3 2 3 8 4 3 4 4 4 3 2 3 2 2 3 4 3 5 6 6 8 5 6 6
5 5 5 4 4 4 4 4 4 3 3 3 3 3 3 3 3 3 3 4 4 4 3 2 2 3 8 3 5 4 3 6 6 5 4 2 3 4 4 6 7 6 9 8 7 5 6
6 7 6 6 5 4 4 4 4 4 4 4 3 4 4 4 4 4 4 4 4 3 1 1 2 5 5 6 4 3 3 4 5 6 4 4 4 6 6 7 11 9 9 8 8 6 7
6 6 6 6 6 6 6 6 4 4 4 4 4 3 4 4 4 4 5 6 6 4 3 6 6 7 6 5 3 4 2 4 4 4 6 4 7 8 7 6 6 7 8 9 7 6 7
6 6 6 6 6 6 6 6 6 5 5 4 4 4 3 4 4 4 5 8 7 8 9 6 5 5 5 4 6 5 2 5 6 6 5 6 8 6 5 5 6 7 8 8 7 6 7
5 5 5 5 5 5 6 6 6 6 5 5 5 4 4 4 4 5 6 7 5 6 9 8 7 7 6 5 7 5 4 5 6 6 6 8 6 5 6 7 8 7 8 8 8 7 6
4 4 4 4 4 4 5 5 5 6 6 5 5 5 5 4 6 5 7 6 5 5 11 10 9 7 6 6 8 5 3 5 6 7 6 6 5 6 7 7 7 9 6 7 8 8 10
5 5 4 4 4 4 4 4 5 5 6 5 5 5 5 5 6 7 6 4 5 6 15 8 7 4 5 7 7 7 4 4 7 7 6 7 7 7 8 7 6 8 6 7 7 8 9
5 4 4 4 4 3 4 4 4 4 5 5 5 4 5 6 6 5 5 5 6 11 15 10 7 8 8 7 7 6 6 4 4 6 5 6 4 5 6 5 6 5 7 7 7 8 12
4 4 3 2 1 1 1 1 2 2 3 5 5 5 5 5 9 4 4 7 12 14 9 10 9 8 8 9 8 7 8 8 9 9 9 7 7 5 5 7 6 6 8 12 13 13 13
3 2 0 -0 -0 -1 -1 -1 -0 -0 -0 1 3 4 5 6 5 5 6 11 15 12 10 8 8 8 9 8 8 8 8 9 7 7 8 10 11 7 5 6 8 7 8 11 15 15 12
1 -0 -0 -1 -1 -1 -1 -1 -1 -1 -1 0 1 2 3 4 4 5 9 15 14 11 9 9 9 9 9 8 8 8 8 9 8 6 9 9 10 6 6 5 6 8 9 7 10 10 12
0 -0 -1 -1 -1 -1 -1 -1 -1 -1 -1 -0 2 3 3 1 1 5 10 14 12 9 9 8 11 9 10 9 9 8 8 7 8 6 5 7 10 7 6 5 5 6 6 10 10 15 15
0 -0 -1 -1 -1 -1 -1 -1 -1 -0 -0 -0 3 5 1 -1 -0 7 12 13 11 9 8 9 10 10 9 9 8 9 8 7 7 7 5 6 8 8 7 8 8 8 9 8 8 9 13
0 -0 -1 -1 -1 -1 -1 -1 -1 -0 1 1 3 8 0 -0 9 8 11 10 9 10 9 9 8 8 9 8 9 8 9 7 6 6 8 6 7 10 9 6 5 6 7 8 11 12 10
0 -0 -1 -1 -1 -1 -1 -1 -1 -1 0 3 5 5 -0 2 11 11 7 8 7 9 10 10 10 7 7 8 9 8 8 6 6 6 7 6 8 11 10 9 7 8 7 7 7 8 11
0 -0 -1 -1 -1 -1 -1 -1 -1 -1 -0 1 4 9 6 5 6 7 8 9 10 7 9 9 10 9 9 9 7 8 8 7 6 6 6 6 7 9 12 10 8 9 8 7 8 11 10
0 -1 -1 -1 -1 -1 -1 -1 -1 -0 -0 1 3 7 6 11 9 9 8 8 10 10 7 7 9 9 8 9 9 9 7 7 7 6 5 6 10 8 8 7 7 8 8 8 9 8 10
-0 -0 -1 -1 -1 -1 -1 -1 -1 -1 -1 2 7 8 6 7 8 8 8 9 9 8 8 8 9 9 7 9 8 8 7 7 8 6 6 6 9 8 9 8 8 9 8 8 8 8 8
0 0 -0 -1 -1 -1 -1 -1 -1 -1 -1 2 3 3 6 8 9 10 10 9 8 7 6 6 7 8 9 7 6 6 6 6 6 6 7 7 8 9 11 8 8 11 8 8 7 7 7
0 0 -0 -1 -1 -1 -1 -1 -1 -1 -1 0 2 3 7 10 8 8 7 7 8 8 8 6 5 8 7 5 5 5 6 7 7 7 5 8 9 9 10 9 14 8 6 6 7 6 6
0 0 -0 -1 -1 -1 -1 -1 -1 -1 -1 0 1 3 5 9 7 7 7 7 7 7 8 7 5 4 5 6 8 9 9 8 8 7 7 6 8 10 12 12 9 8 7 7 8 8 5
1 0 -0 -1 -1 -1 -1 -1 -1 -1 -1 -0 1 0 3 8 7 7 8 7 8 9 9 7 4 3 4 8 10 12 13 10 10 9 7 7 7 9 10 14 15 8 6 5 5 10 5
0 0 -0 -0 -1 -1 -1 -1 -1 -1 -1 -0 1 -1 3 8 5 5 8 9 6 7 8 6 5 6 4 9 14 14 12 8 11 11 11 10 9 11 12 13 10 7 5 5 11 9 4
0 0 0 -0 -1 -1 -1 -1 -1 -1 -1 -0 0 -1 2 6 5 4 5 8 7 6 9 6 7 6 7 10 12 12 12 9 9 8 9 10 11 11 10 12 13 5 6 8 5 5 4
0 0 0 -0 -0 -1 -1 -1 -1 -1 -1 -1 3 -0 -0 4 4 2 2 2 3 3 6 5 6 6 5 7 9 9 11 9 9 11 7 10 8 9 9 9 6 5 5 4 3 4 4